Time,TemperatureF,DewpointF,PressureIn,WindDirection,WindDirectionDegrees,WindSpeedMPH,WindSpeedGustMPH,Humidity,HourlyPrecipIn,Conditions,Clouds,dailyrainin,SolarRadiationWatts/m^2,SoftwareType,DateUTC
2013-06-20 00:02:00,69.0,66.0,-100.00,South,191,0.0,3.0,91,0.00,,,0.00,0.000000,,2013-06-20 04:02:00,
2013-06-20 00:34:00,68.0,67.0,-100.00,SSW,212,0.0,2.0,95,0.00,,,0.00,0.000000,,2013-06-20 04:34:00,
2013-06-20 00:44:00,68.0,67.0,-100.00,SSW,212,0.0,2.0,95,0.00,,,0.00,0.000000,,2013-06-20 04:44:00,
2013-06-20 00:54:00,68.0,67.0,-100.00,SSW,212,0.0,2.0,95,0.00,,,0.00,0.000000,,2013-06-20 04:54:00,
2013-06-20 01:02:00,68.0,67.0,-100.00,SSW,212,0.0,2.0,95,0.00,,,0.00,0.000000,,2013-06-20 05:02:00,
2013-06-20 01:33:00,67.0,66.0,-100.00,WSW,258,2.0,4.0,95,0.00,,,0.00,0.000000,,2013-06-20 05:33:00,
2013-06-20 01:44:00,67.0,66.0,-100.00,WSW,258,2.0,4.0,95,0.00,,,0.00,0.000000,,2013-06-20 05:44:00,
2013-06-20 01:53:00,67.0,66.0,-100.00,WSW,258,2.0,4.0,95,0.00,,,0.00,0.000000,,2013-06-20 05:53:00,
2013-06-20 02:02:00,67.0,66.0,-100.00,WSW,258,2.0,4.0,95,0.00,,,0.00,0.000000,,2013-06-20 06:02:00,
2013-06-20 02:34:00,67.0,66.0,-100.00,West,268,1.0,3.0,95,0.00,,,0.00,0.000000,,2013-06-20 06:34:00,
2013-06-20 02:43:00,67.0,66.0,-100.00,West,268,1.0,3.0,95,0.00,,,0.00,0.000000,,2013-06-20 06:43:00,
2013-06-20 02:53:00,67.0,66.0,-100.00,West,268,1.0,3.0,95,0.00,,,0.00,0.000000,,2013-06-20 06:53:00,
2013-06-20 03:01:00,67.0,66.0,-100.00,West,268,1.0,3.0,95,0.00,,,0.00,0.000000,,2013-06-20 07:01:00,
2013-06-20 03:34:00,66.0,65.0,-100.00,SW,236,1.0,3.0,97,0.00,,,0.00,0.000000,,2013-06-20 07:34:00,
2013-06-20 03:44:00,66.0,65.0,-100.00,SW,236,1.0,3.0,97,0.00,,,0.00,0.000000,,2013-06-20 07:44:00,
2013-06-20 03:53:00,66.0,65.0,-100.00,SW,236,1.0,3.0,97,0.00,,,0.00,0.000000,,2013-06-20 07:53:00,
2013-06-20 04:02:00,66.0,65.0,-100.00,SW,236,1.0,3.0,97,0.00,,,0.00,0.000000,,2013-06-20 08:02:00,
2013-06-20 04:34:00,65.0,64.0,-100.00,West,259,1.0,3.0,98,0.00,,,0.00,0.000000,,2013-06-20 08:34:00,
2013-06-20 04:43:00,65.0,64.0,-100.00,West,259,1.0,3.0,98,0.00,,,0.00,0.000000,,2013-06-20 08:43:00,
2013-06-20 04:53:00,65.0,64.0,-100.00,West,259,1.0,3.0,98,0.00,,,0.00,0.000000,,2013-06-20 08:53:00,
2013-06-20 05:02:00,65.0,64.0,-100.00,West,259,1.0,3.0,98,0.00,,,0.00,0.000000,,2013-06-20 09:02:00,
2013-06-20 05:33:00,64.0,63.0,-100.00,ESE,112,0.0,2.0,98,0.00,,,0.00,0.000000,,2013-06-20 09:33:00,
2013-06-20 05:43:00,64.0,63.0,-100.00,ESE,112,0.0,2.0,98,0.00,,,0.00,0.000000,,2013-06-20 09:43:00,
2013-06-20 05:52:00,64.0,63.0,-100.00,ESE,112,0.0,2.0,98,0.00,,,0.00,0.000000,,2013-06-20 09:52:00,
2013-06-20 06:01:00,64.0,63.0,-100.00,ESE,112,0.0,2.0,98,0.00,,,0.00,0.000000,,2013-06-20 10:01:00,
2013-06-20 06:34:00,64.0,64.0,-100.00,WSW,257,1.0,3.0,99,0.00,,,0.00,0.000000,,2013-06-20 10:34:00,
2013-06-20 06:44:00,64.0,64.0,-100.00,WSW,257,1.0,3.0,99,0.00,,,0.00,0.000000,,2013-06-20 10:44:00,
2013-06-20 06:53:00,64.0,64.0,-100.00,WSW,257,1.0,3.0,99,0.00,,,0.00,0.000000,,2013-06-20 10:53:00,
2013-06-20 07:02:00,64.0,64.0,-100.00,WSW,257,1.0,3.0,99,0.00,,,0.00,0.000000,,2013-06-20 11:02:00,
2013-06-20 07:34:00,67.0,66.0,-100.00,SSE,155,0.0,2.0,95,0.00,,,0.00,38.000000,,2013-06-20 11:34:00,
2013-06-20 07:43:00,67.0,66.0,-100.00,SSE,155,0.0,2.0,95,0.00,,,0.00,38.000000,,2013-06-20 11:43:00,
2013-06-20 07:53:00,67.0,66.0,-100.00,SSE,155,0.0,2.0,95,0.00,,,0.00,38.000000,,2013-06-20 11:53:00,
2013-06-20 08:02:00,67.0,66.0,-100.00,SSE,155,0.0,2.0,95,0.00,,,0.00,38.000000,,2013-06-20 12:02:00,
2013-06-20 08:43:00,71.0,66.0,-100.00,ESE,107,2.0,5.0,84,0.00,,,0.00,146.000000,,2013-06-20 12:43:00,
2013-06-20 08:53:00,71.0,66.0,-100.00,ESE,107,2.0,5.0,84,0.00,,,0.00,146.000000,,2013-06-20 12:53:00,
2013-06-20 09:02:00,71.0,66.0,-100.00,ESE,107,2.0,5.0,84,0.00,,,0.00,146.000000,,2013-06-20 13:02:00,
2013-06-20 09:42:00,72.0,65.0,-100.00,ENE,57,4.0,6.0,78,0.00,,,0.00,267.000000,,2013-06-20 13:42:00,
2013-06-20 09:53:00,72.0,65.0,-100.00,ENE,57,4.0,6.0,78,0.00,,,0.00,267.000000,,2013-06-20 13:53:00,
2013-06-20 10:02:00,72.0,65.0,-100.00,ENE,57,4.0,6.0,78,0.00,,,0.00,267.000000,,2013-06-20 14:02:00,
2013-06-20 10:33:00,78.0,66.0,-100.00,SE,126,2.0,6.0,67,0.00,,,0.00,516.000000,,2013-06-20 14:33:00,
2013-06-20 10:42:00,78.0,66.0,-100.00,SE,126,2.0,6.0,67,0.00,,,0.00,516.000000,,2013-06-20 14:42:00,
2013-06-20 10:53:00,78.0,66.0,-100.00,SE,126,2.0,6.0,67,0.00,,,0.00,516.000000,,2013-06-20 14:53:00,
2013-06-20 11:02:00,78.0,66.0,-100.00,SE,126,2.0,6.0,67,0.00,,,0.00,516.000000,,2013-06-20 15:02:00,
2013-06-20 11:33:00,79.0,64.0,-100.00,NNE,22,2.0,7.0,61,0.00,,,0.00,631.000000,,2013-06-20 15:33:00,
2013-06-20 11:43:00,79.0,64.0,-100.00,NNE,22,2.0,7.0,61,0.00,,,0.00,631.000000,,2013-06-20 15:43:00,
2013-06-20 11:53:00,79.0,64.0,-100.00,NNE,22,2.0,7.0,61,0.00,,,0.00,631.000000,,2013-06-20 15:53:00,
2013-06-20 12:01:00,79.0,64.0,-100.00,NNE,22,2.0,7.0,61,0.00,,,0.00,631.000000,,2013-06-20 16:01:00,
2013-06-20 12:33:00,80.0,66.0,-100.00,NE,47,4.0,8.0,63,0.00,,,0.00,716.000000,,2013-06-20 16:33:00,
2013-06-20 12:43:00,80.0,66.0,-100.00,NE,47,4.0,8.0,63,0.00,,,0.00,716.000000,,2013-06-20 16:43:00,
2013-06-20 12:52:00,80.0,66.0,-100.00,NE,47,4.0,8.0,63,0.00,,,0.00,716.000000,,2013-06-20 16:52:00,
2013-06-20 13:02:00,80.0,66.0,-100.00,NE,47,4.0,8.0,63,0.00,,,0.00,716.000000,,2013-06-20 17:02:00,
2013-06-20 13:33:00,82.0,67.0,-100.00,NE,44,4.0,8.0,61,0.00,,,0.00,818.000000,,2013-06-20 17:33:00,
2013-06-20 13:43:00,82.0,67.0,-100.00,NE,44,4.0,8.0,61,0.00,,,0.00,818.000000,,2013-06-20 17:43:00,
2013-06-20 13:53:00,82.0,67.0,-100.00,NE,44,4.0,8.0,61,0.00,,,0.00,818.000000,,2013-06-20 17:53:00,
2013-06-20 14:01:00,82.0,67.0,-100.00,NE,44,4.0,8.0,61,0.00,,,0.00,818.000000,,2013-06-20 18:01:00,
2013-06-20 14:34:00,84.0,67.0,-100.00,NE,44,4.0,8.0,57,0.00,,,0.00,892.000000,,2013-06-20 18:34:00,
2013-06-20 14:43:00,84.0,67.0,-100.00,NE,44,4.0,8.0,57,0.00,,,0.00,892.000000,,2013-06-20 18:43:00,
2013-06-20 14:53:00,84.0,67.0,-100.00,NE,44,4.0,8.0,57,0.00,,,0.00,892.000000,,2013-06-20 18:53:00,
2013-06-20 15:01:00,84.0,67.0,-100.00,NE,44,4.0,8.0,57,0.00,,,0.00,892.000000,,2013-06-20 19:01:00,
2013-06-20 15:34:00,85.0,64.0,-100.00,NE,40,4.0,8.0,50,0.00,,,0.00,867.000000,,2013-06-20 19:34:00,
2013-06-20 15:44:00,85.0,64.0,-100.00,NE,40,4.0,8.0,50,0.00,,,0.00,867.000000,,2013-06-20 19:44:00,
2013-06-20 15:52:00,85.0,64.0,-100.00,NE,40,4.0,8.0,50,0.00,,,0.00,867.000000,,2013-06-20 19:52:00,
2013-06-20 16:02:00,85.0,64.0,-100.00,NE,40,4.0,8.0,50,0.00,,,0.00,867.000000,,2013-06-20 20:02:00,
2013-06-20 16:43:00,86.0,66.0,-100.00,NE,43,4.0,8.0,52,0.00,,,0.00,809.000000,,2013-06-20 20:43:00,
2013-06-20 16:53:00,86.0,66.0,-100.00,NE,43,4.0,8.0,52,0.00,,,0.00,809.000000,,2013-06-20 20:53:00,
2013-06-20 17:01:00,86.0,66.0,-100.00,NE,43,4.0,8.0,52,0.00,,,0.00,809.000000,,2013-06-20 21:01:00,